Roseau, MN

7:34 AM CDT on September 27, 2016 (GMT -0500)
Roseau Municipal-Billberg

Weather History for KROX - December, 2013

Change the Weather History Date:

Tuesday, December 3, 2013

  Actual Average Record
Temperature  
Mean Temperature 21 °F -  
Max Temperature 23 °F 20 °F 47 °F (1962)
Min Temperature 19 °F 1 °F -29 °F (1964)
Degree Days  
Heating Degree Days 44    
Moisture  
Dew Point 17 °F    
Average Humidity 82    
Maximum Humidity 86    
Minimum Humidity 80    
Precipitation  
Precipitation 0.00 in - - ()
Sea Level Pressure  
Sea Level Pressure 29.90 in    
Wind  
Wind Speed 16 mph (NE)    
Max Wind Speed 21 mph    
Max Gust Speed 24 mph    
Visibility 10 miles    
Events Snow    
Averages and records for this station are not official NWS values.
T = Trace of Precipitation, MM = Missing Value Source: NWS Daily Summary

Daily Weather History Graph

Daily Weather History Graph

Search for Another Location

Airport or City:

Trip Planner

Search our weather history database for the weather conditions in past years. The results will help you decide how hot, cold, wet, or windy it might be!

Date:

Astronomy

Dec. 03, 2013 Rise Set
Actual Time 7:57 AM CST 4:27 PM CST
Civil Twilight 7:21 AM CST 5:04 PM CST
Nautical Twilight 6:41 AM CST 5:43 PM CST
Astronomical Twilight 6:03 AM CST 6:21 PM CST
Moon 8:25 AM CST (12/3) 5:34 PM CST (12/3)
Length of Visible Light 9h 42m
Length of Day
8h 29m
New Moon, 1% of the Moon is Illuminated
Dec 3
New Moon
Dec 9
First Quarter
Dec 17
Full
Dec 25
Last Quarter
Jan 1
New

Hourly Weather History & Observations

Time (CST) Temp. Windchill Dew Point Humidity Pressure Visibility Wind Dir Wind Speed Gust Speed Precip Events Conditions
12:14 AM 21.2 °F 7.3 °F 15.8 °F 80% 29.82 in 10.0 mi NE 16.1 mph - N/A   Overcast
12:34 AM 21.2 °F 6.8 °F 15.8 °F 80% 29.82 in 10.0 mi NE 17.3 mph - N/A   Overcast
12:54 AM 21.2 °F 7.3 °F 15.8 °F 80% 29.82 in 10.0 mi NE 16.1 mph - N/A   Overcast
1:14 AM 21.2 °F 8.3 °F 15.8 °F 80% 29.83 in 10.0 mi NE 13.8 mph - N/A   Overcast
1:34 AM 21.2 °F 7.8 °F 15.8 °F 80% 29.83 in 10.0 mi NE 15.0 mph 18.4 mph N/A   Overcast
1:54 AM 21.2 °F 7.3 °F 15.8 °F 80% 29.83 in 10.0 mi NE 16.1 mph - N/A   Overcast
2:14 AM 21.2 °F 7.8 °F 15.8 °F 80% 29.83 in 10.0 mi NNE 15.0 mph 20.7 mph N/A   Overcast
2:34 AM 21.2 °F 7.3 °F 15.8 °F 80% 29.84 in 10.0 mi NE 16.1 mph - N/A   Overcast
2:54 AM 21.2 °F 7.3 °F 15.8 °F 80% 29.84 in 10.0 mi NE 16.1 mph - N/A   Overcast
3:14 AM 21.2 °F 6.8 °F 15.8 °F 80% 29.83 in 10.0 mi NE 17.3 mph - N/A   Overcast
3:34 AM 21.2 °F 7.3 °F 15.8 °F 80% 29.84 in 10.0 mi NE 16.1 mph 23.0 mph N/A   Overcast
3:54 AM 21.2 °F 7.8 °F 15.8 °F 80% 29.85 in 10.0 mi NE 15.0 mph - N/A Snow Light Snow
4:15 AM 21.2 °F 7.3 °F 15.8 °F 80% 29.85 in 10.0 mi NNE 16.1 mph - N/A   Overcast
4:34 AM 21.2 °F 7.8 °F 15.8 °F 80% 29.85 in 10.0 mi NNE 15.0 mph - N/A   Overcast
4:54 AM 21.2 °F 7.8 °F 15.8 °F 80% 29.85 in 10.0 mi NNE 15.0 mph - N/A   Overcast
5:15 AM 21.2 °F 7.8 °F 15.8 °F 80% 29.85 in 10.0 mi NE 15.0 mph - N/A   Overcast
5:34 AM 19.4 °F 5.5 °F 15.8 °F 86% 29.85 in 10.0 mi NE 15.0 mph - N/A   Overcast
5:54 AM 19.4 °F 5.5 °F 15.8 °F 86% 29.85 in 10.0 mi NE 15.0 mph - N/A   Overcast
6:15 AM 19.4 °F 5.5 °F 15.8 °F 86% 29.85 in 10.0 mi NNE 15.0 mph - N/A   Overcast
6:34 AM 19.4 °F 4.5 °F 15.8 °F 86% 29.85 in 10.0 mi NE 17.3 mph - N/A   Overcast
6:54 AM 19.4 °F 5.5 °F 15.8 °F 86% 29.86 in 10.0 mi NE 15.0 mph - N/A   Overcast
7:15 AM 19.4 °F 5.5 °F 15.8 °F 86% 29.87 in 10.0 mi NE 15.0 mph - N/A   Overcast
7:34 AM 19.4 °F 6.0 °F 15.8 °F 86% 29.87 in 10.0 mi NNE 13.8 mph - N/A   Overcast
7:54 AM 19.4 °F 4.5 °F 15.8 °F 86% 29.87 in 10.0 mi NE 17.3 mph - N/A   Overcast
8:15 AM 19.4 °F 4.5 °F 15.8 °F 86% 29.88 in 10.0 mi NE 17.3 mph - N/A   Overcast
8:34 AM 19.4 °F 5.5 °F 15.8 °F 86% 29.89 in 10.0 mi NE 15.0 mph - N/A   Overcast
8:54 AM 19.4 °F 5.0 °F 15.8 °F 86% 29.89 in 10.0 mi NE 16.1 mph - N/A Snow Light Snow
9:15 AM 19.4 °F 6.0 °F 15.8 °F 86% 29.89 in 10.0 mi NE 13.8 mph - N/A   Overcast
9:34 AM 21.2 °F 7.3 °F 15.8 °F 80% 29.89 in 10.0 mi NE 16.1 mph - N/A   Overcast
9:54 AM 21.2 °F 7.8 °F 15.8 °F 80% 29.89 in 10.0 mi NE 15.0 mph - N/A   Overcast
10:14 AM 21.2 °F 6.8 °F 15.8 °F 80% 29.90 in 10.0 mi NE 17.3 mph - N/A   Overcast
10:34 AM 21.2 °F 7.3 °F 15.8 °F 80% 29.91 in 10.0 mi NE 16.1 mph 19.6 mph N/A   Overcast
10:54 AM 21.2 °F 7.8 °F 15.8 °F 80% 29.91 in 10.0 mi NE 15.0 mph - N/A   Overcast
11:15 AM 21.2 °F 6.8 °F 17.6 °F 86% 29.91 in 10.0 mi NE 17.3 mph 20.7 mph N/A   Overcast
11:34 AM 21.2 °F 7.3 °F 17.6 °F 86% 29.91 in 10.0 mi NE 16.1 mph - N/A   Overcast
11:54 AM 21.2 °F 6.4 °F 17.6 °F 86% 29.90 in 10.0 mi NE 18.4 mph 21.9 mph N/A   Overcast
12:15 PM 21.2 °F 8.9 °F 17.6 °F 86% 29.90 in 10.0 mi NE 12.7 mph - N/A   Overcast
12:34 PM 23.0 °F 9.2 °F 17.6 °F 80% 29.90 in 10.0 mi NE 17.3 mph 21.9 mph N/A   Overcast
12:54 PM 23.0 °F 9.2 °F 17.6 °F 80% 29.89 in 10.0 mi NE 17.3 mph 23.0 mph N/A   Overcast
1:15 PM 23.0 °F 9.2 °F 17.6 °F 80% 29.89 in 7.0 mi NE 17.3 mph - N/A Snow Light Snow
1:34 PM 23.0 °F 9.6 °F 17.6 °F 80% 29.89 in 10.0 mi NE 16.1 mph 21.9 mph N/A   Overcast
1:54 PM 23.0 °F 10.6 °F 17.6 °F 80% 29.89 in 10.0 mi NE 13.8 mph - N/A   Overcast
2:15 PM 23.0 °F 10.6 °F 17.6 °F 80% 29.90 in 10.0 mi NE 13.8 mph - N/A   Overcast
2:34 PM 23.0 °F 8.7 °F 17.6 °F 80% 29.90 in 10.0 mi NE 18.4 mph 21.9 mph N/A Snow Light Snow
2:54 PM 23.0 °F 9.6 °F 17.6 °F 80% 29.90 in 10.0 mi NE 16.1 mph 20.7 mph N/A   Overcast
3:14 PM 23.0 °F 8.7 °F 17.6 °F 80% 29.91 in 10.0 mi NE 18.4 mph 23.0 mph N/A   Overcast
3:34 PM 23.0 °F 8.7 °F 17.6 °F 80% 29.92 in 10.0 mi NE 18.4 mph - N/A   Overcast
3:54 PM 23.0 °F 8.7 °F 17.6 °F 80% 29.92 in 10.0 mi NE 18.4 mph - N/A   Overcast
4:14 PM 23.0 °F 9.6 °F 17.6 °F 80% 29.92 in 10.0 mi NE 16.1 mph - N/A Snow Light Snow
4:34 PM 23.0 °F 9.6 °F 17.6 °F 80% 29.93 in 10.0 mi NE 16.1 mph - N/A   Overcast
4:54 PM 23.0 °F 9.6 °F 17.6 °F 80% 29.93 in 10.0 mi NE 16.1 mph - N/A   Overcast
5:14 PM 23.0 °F 10.1 °F 17.6 °F 80% 29.93 in 10.0 mi NE 15.0 mph - N/A   Overcast
5:34 PM 23.0 °F 10.1 °F 17.6 °F 80% 29.92 in 10.0 mi NE 15.0 mph - N/A   Overcast
5:54 PM 23.0 °F 10.6 °F 17.6 °F 80% 29.93 in 10.0 mi NE 13.8 mph 19.6 mph N/A   Overcast
6:14 PM 23.0 °F 9.6 °F 17.6 °F 80% 29.93 in 10.0 mi NE 16.1 mph - N/A   Overcast
6:34 PM 23.0 °F 10.6 °F 17.6 °F 80% 29.94 in 10.0 mi NE 13.8 mph - N/A   Overcast
6:54 PM 23.0 °F 10.6 °F 17.6 °F 80% 29.95 in 10.0 mi NE 13.8 mph - N/A   Overcast
7:14 PM 23.0 °F 10.1 °F 17.6 °F 80% 29.96 in 10.0 mi ENE 15.0 mph - N/A   Overcast
7:34 PM 23.0 °F 10.1 °F 17.6 °F 80% 29.96 in 10.0 mi ENE 15.0 mph - N/A   Overcast
7:54 PM 23.0 °F 9.2 °F 17.6 °F 80% 29.96 in 7.0 mi ENE 17.3 mph - N/A Snow Light Snow
8:14 PM 23.0 °F 9.6 °F 17.6 °F 80% 29.96 in 7.0 mi ENE 16.1 mph - N/A Snow Light Snow
8:34 PM 23.0 °F 9.2 °F 17.6 °F 80% 29.96 in 5.0 mi ENE 17.3 mph - N/A Snow Light Snow
8:54 PM 23.0 °F 9.6 °F 17.6 °F 80% 29.98 in 7.0 mi ENE 16.1 mph - N/A Snow Light Snow
9:14 PM 21.2 °F 7.3 °F 17.6 °F 86% 29.98 in 7.0 mi ENE 16.1 mph 20.7 mph N/A Snow Light Snow
9:34 PM 21.2 °F 6.8 °F 17.6 °F 86% 29.98 in 10.0 mi ENE 17.3 mph - N/A   Overcast
9:54 PM 21.2 °F 6.0 °F 15.8 °F 80% 29.97 in 7.0 mi East 19.6 mph 23.0 mph N/A Snow Light Snow
10:15 PM 21.2 °F 6.4 °F 15.8 °F 80% 29.97 in 7.0 mi East 18.4 mph - N/A Snow Light Snow
10:34 PM 21.2 °F 6.8 °F 15.8 °F 80% 29.96 in 7.0 mi East 17.3 mph - N/A Snow Light Snow
10:54 PM 21.2 °F 5.6 °F 15.8 °F 80% 29.94 in 7.0 mi East 20.7 mph 24.2 mph N/A Snow Light Snow
11:15 PM 19.4 °F 5.0 °F 15.8 °F 86% 29.96 in 10.0 mi ENE 16.1 mph - N/A Snow Light Snow
11:34 PM 19.4 °F 5.5 °F 15.8 °F 86% 29.97 in 10.0 mi East 15.0 mph - N/A   Overcast
11:54 PM 19.4 °F 4.5 °F 15.8 °F 86% 29.96 in 10.0 mi East 17.3 mph - N/A Snow Light Snow